Regional Weather Roundup
Issued by NWS Kansas City/Pleasant Hill, MO

Home | Current Version | Previous Version | Text Only | Print | Product List | Glossary On
Versions: 1 2 3 4 5 6 7 8 9 10 11 12 13 14 15 16 17 18 19 20 21 22 23 24 25 26 27 28 29 30 31 32 33 34 35 36 37 38 39 40 41 42 43 44 45 46 47 48 49 50
000
ASUS43 KEAX 272004
RWREAX

WEATHER ROUNDUP FOR EASTERN KANSAS AND NORTHWEST MISSOURI
NATIONAL WEATHER SERVICE KANSAS CITY/PLEASANT HILL MO
300 PM CDT WED AUG 27 2014

KSZ040-057-103>105-MOZ028-029-037-043-272100-
...KANSAS CITY METROPOLITAN AREA...

CITY           SKY/WX    TMP DP  RH WIND       PRES   REMARKS
K.C. INTL      PTSUNNY   83  68  60 E13       30.10F
K.C. DOWNTOWN  SUNNY     87  69  54 E12G18    30.08F HX  91
LEES SUMMIT    MOSUNNY   84  71  65 NE10      30.10F
OLATHE - IXD   MOSUNNY   90  72  55 E12G17    30.09F HX  97
OLATHE - OJC   SUNNY     86  72  62 E9        30.09F HX  92
LAWRENCE       SUNNY     91  72  53 E8        30.08F HX  98

$$

MOZ001>008-011>017-020>025-030>033-038>040-044>046-053-054-272100-
...NORTHERN AND CENTRAL MISSOURI...

CITY           SKY/WX    TMP DP  RH WIND       PRES   REMARKS
ST. JOSEPH     PTSUNNY   80  71  74 E6        30.10F
MOSBY          MOCLDY    82  68  61 E7        30.10F
WHITEMAN AFB   TSTM      80  55  41 SE9       30.12R
CLINTON        PTSUNNY   86  75  70 NE9       30.09F HX  95
SEDALIA        CLOUDY    87  73  62 VRB5      30.11F HX  94
WARSAW         NOT AVBL
MARSHALL       CLOUDY    88  75  66 NE12      30.12F HX  97
CHILLICOTHE      N/A     79  71  76 E3        30.12F
MOBERLY        CLOUDY    82  70  65 NE9       30.12F
KIRKSVILLE     CLOUDY    76  70  82 E6        30.13F

$$

MOZ041-047>049-056>058-063>065-088>090-097-272100-
...EASTERN AND SOUTHERN MISSOURI...

CITY           SKY/WX    TMP DP  RH WIND       PRES   REMARKS
ST. LOUIS INTL PTSUNNY   94  74  52 N8        30.07F HX 104
SPIRIT OF STL  PTSUNNY   94  72  48 W6        30.04F HX 102
COLUMBIA       PTSUNNY   88  75  65 N12       30.09F HX  97
JEFFERSON CITY MOSUNNY   90  74  59 VRB6      30.06F HX  99
MEXICO         CLOUDY    86  79  79 N9        30.10F HX  99
ROLLA          PTSUNNY   75  68  78 CALM      30.08F
LEBANON        PTSUNNY   77  66  69 N12       30.11S
OSAGE BEACH    PTSUNNY   91  72  52 N5        30.08S HX  98
SPRINGFIELD    SUNNY     95  62  33 VRB5      30.06F HX  96
BRANSON        MOSUNNY  100  59  25 S6        30.08F HX 100
NEVADA         MOSUNNY   93  72  49 NE7       30.06F HX 100
JOPLIN         PTSUNNY   96  67  38 NE7       30.06F HX 100
WEST PLAINS    MOSUNNY   94  64  37 VRB6      30.08F HX  95

$$

IAZ060-094-KSZ022-034>040-054-083-096-NEZ052-066-093-272100-
...KANSAS...SOUTHEAST NEBRASKA AND IOWA...

CITY           SKY/WX    TMP DP  RH WIND       PRES   REMARKS
TOPEKA         MOSUNNY   87  72  60 NE10      30.07F HX  93
MANHATTAN      CLOUDY    89  71  55 E10       30.06F HX  95
EMPORIA        CLOUDY    93  65  39 N5        30.07F HX  95
CHANUTE        MOSUNNY   96  63  33 S8        30.05F HX  97
WICHITA        CLOUDY    91  64  40 VRB5      30.06F HX  92
OMAHA          LGT RAIN  71  68  90 S9        30.08F
LINCOLN        CLOUDY    73  69  87 S9        30.12F
FALLS CITY     PTSUNNY   79  71  76 E5        30.10F
LAMONI         CLOUDY    75  69  81 NE6       30.12F
DES MOINES     CLOUDY    75  66  73 CALM      30.14F

$$




USA.gov is the U.S. government's official web portal to all federal, state and local government web resources and services.